FW7766 Weather Reports


Display with metric or nautical units.
time (UTC)temp
F
wind
direction
speed
MPH
gust
MPH
rain 1hr
in
rain 24hr
in
rain mn
in
humidity
%
barometer
mb
20260504050614 45 0.0 0.0 0.00 0.00 0.00 67 1017.4
20260504045610 46 0.0 0.0 0.00 0.00 0.00 60 1017.4
20260504044607 45 0.0 0.0 0.00 0.00 0.00 67 1017.4
20260504043603 45 0 0.0 2.0 0.00 0.00 0.00 67 1017.2
20260504042600 45 0 1.0 1.0 0.00 0.00 0.00 63 1017.3
20260504041556 46 0.0 0.0 0.00 0.00 0.00 57 1017.0
20260504040553 47 0.0 0.0 0.00 0.00 0.00 57 1017.0
20260504035609 47 0.0 0.0 0.00 0.00 0.00 56 1017.1
20260504034544 47 0.0 0.0 0.00 0.00 0.00 57 1017.2
20260504033541 47 45 1.0 1.0 0.00 0.00 0.00 57 1017.2
20260504032538 47 0 0.0 1.0 0.00 0.00 0.00 57 1017.2
20260504031534 47 90 1.0 1.0 0.00 0.00 0.00 55 1017.1
20260504030531 49 0.0 0.0 0.00 0.00 0.00 51 1017.1
20260504025528 49 0.0 0.0 0.00 0.00 0.00 48 1017.1
20260504024524 49 0.0 0.0 0.00 0.00 0.00 50 1017.1
20260504023540 50 90 0.0 1.0 0.00 0.00 0.00 48 1017.1
20260504022517 50 0.0 0.0 0.00 0.00 0.00 45 1017.0
20260504021654 51 0.0 0.0 0.00 0.00 0.00 45 1016.9
20260504020610 51 0.0 0.0 0.00 0.00 0.00 45 1016.8
20260504015627 52 0.0 0.0 0.00 0.00 0.00 45 1016.6
20260504014624 53 0.0 0.0 0.00 0.00 0.00 45 1016.4
20260504013600 53 0.0 0.0 0.00 0.00 0.00 45 1016.3
20260504012557 53 0.0 0.0 0.00 0.00 0.00 45 1016.2
20260504011553 54 0.0 0.0 0.00 0.00 0.00 45 1016.1
20260504010550 55 0.0 0.0 0.00 0.00 0.00 40 1016.0
20260504005546 55 0.0 0.0 0.00 0.00 0.00 40 1016.1
20260504004543 56 0.0 0.0 0.00 0.00 0.00 40 1016.0
20260504003540 57 0.0 0.0 0.00 0.00 0.00 40 1015.8
20260504002536 58 0.0 0.0 0.00 0.00 0.00 40 1015.8
20260504001533 59 0.0 0.0 0.00 0.00 0.00 40 1015.7
20260504000529 60 0.0 0.0 0.00 0.00 0.00 44 1015.7
20260503235526 61 0.0 1.0 0.00 0.00 0.00 44 1015.7
20260503234523 62 0.0 0.0 0.00 0.00 0.00 44 1015.7
20260503233540 62 0.0 0.0 0.00 0.00 0.00 44 1015.7
20260503232516 63 0.0 0.0 0.00 0.00 0.00 44 1015.8
20260503231613 63 0.0 0.0 0.00 0.00 0.00 44 1015.8
20260503230630 63 0.0 1.0 0.00 0.00 0.00 44 1015.7
20260503225626 63 270 0.0 1.0 0.00 0.00 0.00 44 1015.8
20260503224623 64 270 1.0 4.0 0.00 0.00 0.00 44 1015.9
20260503223559 64 0.0 0.0 0.00 0.00 0.00 44 1015.9
20260503222556 65 270 1.0 2.0 0.00 0.00 0.00 44 1015.9
20260503221552 65 270 0.0 1.0 0.00 0.00 0.00 44 1015.9
20260503220549 65 0.0 0.0 0.00 0.00 0.00 44 1016.1
20260503215546 65 0.0 0.0 0.00 0.00 0.00 44 1016.1
20260503214542 65 180 0.0 1.0 0.00 0.00 0.00 44 1016.3
20260503213559 65 180 0.0 2.0 0.00 0.00 0.00 44 1016.5
20260503212535 65 270 0.0 2.0 0.00 0.00 0.00 44 1016.6
20260503211532 65 270 1.0 3.0 0.00 0.00 0.00 44 1016.6
20260503210549 65 270 0.0 2.0 0.00 0.00 0.00 44 1016.7
20260503205525 65 270 2.0 3.0 0.00 0.00 0.00 44 1016.7
20260503204542 66 0.0 0.0 0.00 0.00 0.00 44 1016.8
20260503203519 65 270 3.0 5.0 0.00 0.00 0.00 44 1016.8
20260503202515 65 270 3.0 5.0 0.00 0.00 0.00 44 1017.0
20260503201612 64 0 0.0 2.0 0.00 0.00 0.00 44 1017.1
20260503200609 64 270 1.0 2.0 0.00 0.00 0.00 44 1017.3
20260503195625 64 270 2.0 3.0 0.00 0.00 0.00 44 1017.5
20260503194602 64 270 1.0 1.0 0.00 0.00 0.00 44 1017.7
20260503193559 64 270 1.0 3.0 0.00 0.00 0.00 44 1017.8
20260503192555 63 294 2.0 3.0 0.00 0.00 0.00 44 1017.9
20260503191552 63 270 3.0 6.0 0.00 0.00 0.00 44 1018.0
20260503190548 63 0 2.0 3.0 0.00 0.00 0.00 44 1018.1
20260503185545 63 270 1.0 2.0 0.00 0.00 0.00 44 1018.2
20260503184541 62 279 2.0 4.0 0.00 0.00 0.00 44 1018.4
20260503183557 62 312 1.0 2.0 0.00 0.00 0.00 44 1018.6
20260503182534 60 270 3.0 5.0 0.00 0.00 0.00 44 1018.8
20260503181530 61 270 2.0 4.0 0.00 0.00 0.00 44 1018.8
20260503180528 61 270 4.0 5.0 0.00 0.00 0.00 44 1019.0
20260503175524 62 270 0.0 2.0 0.00 0.00 0.00 44 1019.1
20260503174540 61 270 2.0 5.0 0.00 0.00 0.00 44 1019.2
20260503173517 61 270 2.0 3.0 0.00 0.00 0.00 44 1019.3
20260503172614 60 270 2.0 3.0 0.00 0.00 0.00 44 1019.3
20260503171610 60 270 2.0 3.0 0.00 0.00 0.00 44 1019.4
20260503170607 59 270 3.0 5.0 0.00 0.00 0.00 44 1019.6
20260503150526 53 0 1.0 1.0 0.00 0.00 0.00 45 1020.7
20260503130545 47 294 2.0 4.0 0.00 0.00 0.00 44 1020.7
20260503110622 37 0.0 0.0 0.00 0.00 0.00 73 1019.4
20260503081605 39 0.0 0.0 0.00 0.00 0.00 70 1017.5
20260503080602 39 0.0 0.0 0.00 0.00 0.00 70 1017.5
20260503072548 40 270 0.0 1.0 0.00 0.00 0.00 70 1017.0
20260503071544 40 0.0 0.0 0.00 0.00 0.00 70 1016.9
20260503070541 40 0.0 0.0 0.00 0.00 0.00 70 1016.9
20260503054614 42 0.0 0.0 0.00 0.00 0.00 69 1016.7
20260503053611 42 0.0 0.0 0.00 0.00 0.00 69 1016.6
20260503052607 42 0.0 0.0 0.00 0.00 0.00 69 1016.5